NSIGHT (42726 NORAD) Tracking and Keplerian Element Data

This shows tracking and keplerian element data for the satellite.

Feedback or suggestion? Click here.




ElementValue
Catalog42726
NameNSIGHT
Epoch Orbit16359
Epoch Day94.12963924
Epoch Year2020
RAAN248.1249
Inclination51.6244
Eccentricity0.000701
Argument of Perigee288.5513
Mean Anonmoly71.4735
Mean Motion16.01675738
Decay Rate0.00297502
L11 42726U 98067MF 20094.12963924 .00297502 49211-4 51666-3 0 9995
L22 42726 51.6244 248.1249 0007010 288.5513 71.4735 16.01675738163590

Live tracking and technical data element details for NSIGHT (NORAD 42726). NSIGHT can be tracked NOW for your location showing map with azimuth and elevation plus other details from your city location.

Track the satellite on the map from your city or location and see movement details for azimuth, elevation, latitude, longitude, range, height, and movement on the map or in text.







IsCatalogInMostPopularTable: catalog: 42726, numindb: 409
Update: records affected: 1



GetName: 42726 NSIGHT

Hit Count: updated at: Thu, 09 Apr 2020 17:49:32 GMT